Location: Asheville, NC
(35.6000°N, 82.5500°W)
Time: 23:54:12

XW-2B - Pass Details

Date: 10 March 2018
Orbit: 511 x 530 km, 97.5° (Epoch: 19 March)

Event Time Altitude Azimuth Distance (km) Brightness Sun altitude
Rises 05:48:55 0° 27° (NNE) 2,655 ? -12.8°
Reaches altitude 10° 05:51:22 10° 43° (NE) 1,766 ? -12.3°
Maximum altitude 05:54:23 22° 96° (E) 1,177 ? -11.7°
Drops below altitude 10° 05:57:24 10° 148° (SSE) 1,762 ? -11.1°
Sets 05:59:51 0° 164° (SSE) 2,648 ? -10.6°
